Flight Track Log - Related Links

Times and Time Zones

All times are in EDT time to prevent confusion due to time zone crossing. See the UAL582 flight status page for this flight to view local times or setup timezone preferences in your user account.

Time Position Orientation Groundspeed Altitude Reporting Facility
EDT Latitude Longitude Course Direction KTS MPH feet Rate Location/Type
Fri 07:06:01 PM 43.7000 -79.6167 277° West 120 138 1,700  Level Toronto Center
Fri 07:07:01 PM 43.7333 -79.5667 47° Northeast 220 253 3,400 2,100 Climbing Toronto Center
Fri 07:08:01 PM 43.8000 -79.5667 360° North 260 299 5,900 1,850 Climbing Toronto Center
Fri 07:09:00 PM 43.7129 -80.1210 277° West  Level FlightAware Approximate
Fri 07:09:01 PM 43.8333 -79.6500 299° West 280 322 7,100  Level Toronto Center
Fri 07:10:00 PM 43.7196 -80.2482 277° West  Level FlightAware Approximate
Fri 07:10:01 PM 43.8167 -79.7667 259° West 290 334 7,000  Level Toronto Center
Fri 07:11:00 PM 43.7311 -80.3749 277° West  Level FlightAware Approximate
Fri 07:11:01 PM 43.8167 -79.8833 270° West 290 334 7,100  Level Toronto Center
Fri 07:12:01 PM 43.8000 -80.0000 259° West 290 334 9,700 1,850 Climbing Toronto Center
Fri 07:13:01 PM 43.7833 -80.1167 259° West 330 380 10,800 1,550 Climbing Toronto Center
Fri 07:14:01 PM 43.7667 -80.2833 262° West 390 449 12,800 2,250 Climbing Toronto Center
Fri 07:15:01 PM 43.7500 -80.4167 260° West 400 460 15,300 2,050 Climbing Toronto Center
Fri 07:16:01 PM 43.7333 -80.5833 262° West 410 472 16,900 1,600 Climbing Toronto Center
Fri 07:17:01 PM 43.7000 -80.7333 253° West 430 495 18,500 1,600 Climbing Toronto Center
Fri 07:18:01 PM 43.6500 -80.9000 248° West 440 506 20,100 1,600 Climbing Toronto Center
Fri 07:19:01 PM 43.6167 -81.0667 255° West 450 518 21,700 1,400 Climbing Toronto Center
Fri 07:20:01 PM 43.5833 -81.2167 253° West 460 529 22,900 1,250 Climbing Toronto Center
Fri 07:21:01 PM 43.5500 -81.4000 256° West 470 541 24,200 1,250 Climbing Toronto Center
Fri 07:22:01 PM 43.5000 -81.5833 249° West 480 552 25,400 1,200 Climbing Toronto Center
Fri 07:23:01 PM 43.4667 -81.7667 256° West 490 564 26,600 1,100 Climbing Toronto Center
Fri 07:24:01 PM 43.4167 -81.9500 249° West 500 575 27,600 1,150 Climbing Toronto Center
Fri 07:25:01 PM 43.3667 -82.1333 249° West 500 575 28,900 1,300 Climbing Toronto Center
Fri 07:26:01 PM 43.3333 -82.3167 256° West 500 575 30,200 900 Climbing Toronto Center
Fri 07:27:01 PM 43.3000 -82.5000 256° West 500 575 30,700 700 Climbing Toronto Center
Fri 07:28:01 PM 43.2500 -82.6833 250° West 510 587 31,600 821 Climbing Toronto Center
Fri 07:28:36 PM 43.2331 -82.7972 258° West 503 579 32,000 253 Climbing Cleveland Center
Fri 07:29:36 PM 43.1814 -82.9806 249° West 517 595 32,000  Level Cleveland Center
Fri 07:30:36 PM 43.1317 -83.1633 250° West 523 602 32,000  Level Cleveland Center
Fri 07:31:36 PM 43.0817 -83.3433 249° West 523 602 32,000  Level Cleveland Center
Fri 07:32:36 PM 43.0292 -83.5283 249° West 518 596 32,000  Level Cleveland Center
Fri 07:33:36 PM 42.9808 -83.7022 249° West 513 590 32,000  Level Cleveland Center
Fri 07:34:36 PM 42.9528 -83.8853 258° West 502 578 32,000  Level Cleveland Center
Fri 07:35:36 PM 42.9347 -84.0714 263° West 495 570 32,000  Level Cleveland Center
Fri 07:36:10 PM 42.9283 -84.1433 263° West 489 563 32,000  Level Chicago Center
Fri 07:37:12 PM 42.9106 -84.3253 262° West 486 559 32,000  Level Chicago Center
Fri 07:38:14 PM 42.8883 -84.5444 262° West 488 562 32,000  Level Chicago Center
Fri 07:39:16 PM 42.8697 -84.7278 262° West 488 562 32,000  Level Chicago Center
Fri 07:40:18 PM 42.8503 -84.9103 262° West 488 562 32,000 -145 Level Chicago Center
Fri 07:41:20 PM 42.8308 -85.0947 262° West 491 565 31,700 -581 Descending Chicago Center
Fri 07:42:22 PM 42.8103 -85.2772 261° West 490 564 30,800 -1,104 Descending Chicago Center
Fri 07:43:25 PM 42.7919 -85.4475 262° West 463 533 29,400 -1,920 Descending Chicago Center
Fri 07:44:27 PM 42.7611 -85.6397 258° West 435 501 26,800 -1,887 Descending Chicago Center
Fri 07:45:29 PM 42.7325 -85.7958 256° West 427 491 25,500 -1,548 Descending Chicago Center
Fri 07:46:31 PM 42.7056 -85.9433 256° West 405 466 23,600 -2,032 Descending Chicago Center
Fri 07:47:33 PM 42.6800 -86.0833 256° West 384 442 21,300 -1,742 Descending Chicago Center
Fri 07:48:35 PM 42.6550 -86.2222 256° West 379 436 20,000 -629 Descending Chicago Center
Fri 07:49:37 PM 42.6281 -86.3578 255° West 371 427 20,000 -629 Level Chicago Center
Fri 07:50:39 PM 42.6028 -86.4969 256° West 379 436 18,700 -1,742 Descending Chicago Center
Fri 07:51:41 PM 42.5694 -86.6697 255° West 391 450 16,400 -2,468 Descending Chicago Center
Fri 07:52:43 PM 42.5417 -86.8022 254° West 370 426 13,600 -2,613 Descending Chicago Center
Fri 07:53:45 PM 42.5072 -86.9264 249° West 355 409 11,000 -1,839 Descending Chicago Center
Fri 07:54:47 PM 42.4756 -87.0456 250° West 338 389 9,800 -960 Descending Chicago Center
Fri 07:55:50 PM 42.4444 -87.1500 248° West 304 350 9,000 -384 Descending Chicago Center
Fri 07:56:52 PM 42.4144 -87.2558 249° West 302 348 9,000  Level Chicago Center
Fri 07:57:54 PM 42.3792 -87.3822 249° West 299 344 9,000  Level Chicago Center
Fri 07:58:56 PM 42.3522 -87.4647 246° West 270 311 9,000  Level Chicago Center
Fri 07:59:59 PM 42.3219 -87.5353 240° Southwest 226 260 9,000 -532 Level Chicago Center
Fri 08:01:00 PM 42.2675 -87.6003 221° Southwest 219 252 7,900 -1,073 Descending Chicago Center
Fri 08:02:02 PM 42.2225 -87.6497 219° Southwest 211 243 6,800 -1,065 Descending Chicago Center
Fri 08:03:04 PM 42.1794 -87.6958 218° Southwest 201 231 5,700 -1,065 Descending Chicago Center
Fri 08:04:06 PM 42.1383 -87.7439 221° Southwest 198 228 4,600 -1,065 Descending Chicago Center

Login

Don't have an account? Register now (free) for customized features, flight alerts, and more!